Content
SEND FEEDBACK

Daily
Averages
Monthly
Summary
Canada

VANCOUVER, BRITISH COLUMBIA


Home > North America > Canada > British Columbia
Elevation: 7 feet     Latitude: 49 11N     Longitude: 123 10W

WEATHER
 
SELECT A DAY
Number of Records: 249,596;   Date Range: 5/15/97 - 8/20/14
 
SHARE

PRINT THIS DATA

[ ← Previous Day ]
WEATHER ALMANAC - JANUARY 10, 2013
[ Next Day → ]
[ °C ]   °F
Weather ElementAverageHighLow
Temperature38.2 °F39.2 °F (12:35 am)33.8 °F (11:15 pm)
Dewpoint31.6 °F35.6 °F (12:35 am)21.2 °F (8:35 pm)
Humidity77.7 %93 % (3:35 am)52 % (8:35 pm)
Barometer30.05 in30.14 in (11:15 pm)29.91 in (12:35 am)
Wind Speed4.1 mph11.5 mph (1:35 pm)
Wind Gust18.4 mph (9:15 am)
Weather ElementAverage
Visibility9.8 mi
Wind DirectionESE (123.1 °)

Weather ElementTotal
Precipitation0.08 in
Heating Degree Days28.5 (Base 65)
Averaged from 65 records on January 10, 2013
WEATHER CONDITIONS BREAKOUT
WIND DIRECTION BREAKOUT
WEATHER BY HOUR - JANUARY 10, 2013
[ °C ]   °F
Local TimeTemperatureDewpointHumidityBarometerVisibilityWind DirectionWind SpeedGust SpeedPrecipitationEventsConditions
12:35 AM39.2 °F35.6 °F87 %29.91 in10.0 miSW (220°)9.2 mphMostly Cloudy
1:15 AM39.2 °F35.6 °F87 %29.92 in10.0 miSSW (210°)6.9 mphMostly Cloudy
1:35 AM39.2 °F35.6 °F87 %29.92 in10.0 miSouth (190°)5.8 mphScattered Clouds
2:15 AM39.2 °F35.6 °F87 %29.94 in10.0 miSSW (210°)5.8 mphMostly Cloudy
2:35 AM39.2 °F35.6 °F87 %29.95 in10.0 miSSW (200°)9.2 mphOvercast
2:55 AM39.2 °F35.6 °F87 %29.95 in10.0 miSouth (190°)6.9 mphMostly Cloudy
3:15 AM39.2 °F35.6 °F87 %29.96 in10.0 miSSW (200°)5.8 mphMostly Cloudy
3:35 AM37.4 °F35.6 °F93 %29.96 in3.0 miSouth (190°)4.6 mphRainRain
3:55 AM37.4 °F35.6 °F93 %29.97 in8.0 miCalmRainLight Rain
4:15 AM37.4 °F35.6 °F93 %29.97 in10.0 miCalmOvercast
4:35 AM37.4 °F35.6 °F93 %29.97 in10.0 miCalmScattered Clouds
4:55 AM37.4 °F35.6 °F93 %29.97 in10.0 miCalmScattered Clouds
5:15 AM37.4 °F35.6 °F93 %29.98 in10.0 miSouth (190°)3.5 mphMostly Cloudy
5:35 AM37.4 °F35.6 °F93 %29.98 in10.0 miCalmOvercast
5:55 AM37.4 °F35.6 °F93 %29.98 in10.0 miSSW (200°)4.6 mphOvercast
6:15 AM39.2 °F35.6 °F87 %29.98 in10.0 miCalmOvercast
6:35 AM39.2 °F35.6 °F87 %29.99 in10.0 miCalmOvercast
7:15 AM39.2 °F35.6 °F87 %30.01 in10.0 miNNW (330°)4.6 mphOvercast
7:35 AM39.2 °F33.8 °F81 %30.02 in10.0 miNW (320°)9.2 mph16.1 mphOvercast
7:55 AM39.2 °F33.8 °F81 %30.03 in10.0 miNW (320°)8.1 mphOvercast
8:15 AM39.2 °F35.6 °F87 %30.03 in10.0 miNW (320°)8.1 mphOvercast
8:35 AM39.2 °F35.6 °F87 %30.04 in10.0 miNNW (330°)8.1 mphRainLight Rain
9:15 AM39.2 °F35.6 °F87 %30.04 in3.0 miNorth (360°)8.1 mph18.4 mph0.04 inRainLight Rain
9:35 AM37.4 °F35.6 °F93 %30.05 in10.0 miENE (60°)6.9 mph0.04 inOvercast
10:15 AM37.4 °F35.6 °F93 %30.06 in10.0 miNE (40°)5.8 mphOvercast
10:35 AM37.4 °F33.8 °F87 %30.07 in10.0 miNE (50°)3.5 mphOvercast
10:55 AM37.4 °F32.0 °F81 %30.07 in10.0 miNE (50°)5.8 mphOvercast
11:15 AM37.4 °F32.0 °F81 %30.07 in10.0 miCalmMostly Cloudy
11:35 AM37.4 °F32.0 °F81 %30.07 in10.0 miCalmOvercast
11:55 AM37.4 °F32.0 °F81 %30.06 in10.0 miCalmOvercast
12:15 PM37.4 °F32.0 °F81 %30.06 in10.0 miCalmOvercast
12:35 PM39.2 °F30.2 °F70 %30.06 in10.0 miCalmOvercast
12:55 PM39.2 °F30.2 °F70 %30.06 in10.0 miCalmOvercast
1:15 PM39.2 °F30.2 °F70 %30.06 in10.0 miNorth (350°)8.1 mphOvercast
1:35 PM39.2 °F32.0 °F75 %30.06 in10.0 miNorth (360°)11.5 mphOvercast
1:55 PM39.2 °F32.0 °F75 %30.06 in10.0 miNorth (350°)11.5 mphOvercast
2:15 PM39.2 °F32.0 °F75 %30.06 in10.0 miNNW (340°)11.5 mphOvercast
2:35 PM39.2 °F32.0 °F75 %30.07 in10.0 miENE (60°)4.6 mphOvercast
2:55 PM39.2 °F32.0 °F75 %30.07 in10.0 miCalmOvercast
3:15 PM39.2 °F32.0 °F75 %30.07 in10.0 miNorth (360°)3.5 mphOvercast
3:35 PM39.2 °F32.0 °F75 %30.08 in10.0 miNorth (10°)4.6 mphOvercast
4:15 PM39.2 °F32.0 °F75 %30.08 in10.0 miNorth (350°)8.1 mphMostly Cloudy
4:35 PM39.2 °F32.0 °F75 %30.08 in10.0 miNorth (350°)6.9 mphMostly Cloudy
4:55 PM39.2 °F32.0 °F75 %30.08 in10.0 miNorth (360°)5.8 mphScattered Clouds
5:15 PM39.2 °F32.0 °F75 %30.08 in10.0 miNorth (360°)5.8 mphPartly Cloudy
5:35 PM39.2 °F32.0 °F75 %30.08 in10.0 miCalmScattered Clouds
5:55 PM39.2 °F30.2 °F70 %30.08 in10.0 miNorth (10°)3.5 mphScattered Clouds
6:15 PM39.2 °F30.2 °F70 %30.09 in10.0 miCalmMostly Cloudy
6:35 PM39.2 °F26.6 °F61 %30.09 in10.0 miNorth (10°)4.6 mphMostly Cloudy
6:55 PM39.2 °F28.4 °F65 %30.09 in10.0 miNNE (20°)3.5 mphScattered Clouds
7:15 PM39.2 °F30.2 °F70 %30.09 in10.0 miNorth (10°)4.6 mphMostly Cloudy
7:35 PM39.2 °F28.4 °F65 %30.09 in10.0 miNorth (360°)5.8 mphMostly Cloudy
7:55 PM39.2 °F28.4 °F65 %30.09 in10.0 miNorth (10°)3.5 mphScattered Clouds
8:15 PM39.2 °F24.8 °F56 %30.09 in10.0 miNorth (10°)5.8 mphClear
8:35 PM37.4 °F21.2 °F52 %30.10 in10.0 miNNE (20°)3.5 mphClear
8:55 PM37.4 °F21.2 °F52 %30.10 in10.0 miCalmClear
9:15 PM37.4 °F24.8 °F60 %30.11 in10.0 miNNE (30°)4.6 mphClear
9:35 PM37.4 °F24.8 °F60 %30.11 in10.0 miNE (50°)5.8 mphClear
9:55 PM35.6 °F26.6 °F70 %30.12 in10.0 miCalmClear
10:15 PM35.6 °F26.6 °F70 %30.12 in10.0 miCalmClear
10:35 PM35.6 °F24.8 °F65 %30.12 in10.0 miNE (40°)4.6 mphClear
10:55 PM35.6 °F24.8 °F65 %30.13 in10.0 miCalmPartly Cloudy
11:15 PM33.8 °F26.6 °F75 %30.14 in10.0 miCalmPartly Cloudy
11:35 PM35.6 °F26.6 °F70 %30.14 in10.0 miCalmPartly Cloudy
11:55 PM35.6 °F24.8 °F65 %30.14 in10.0 miNorthPartly Cloudy
Hourly data recorded from CZBB, located miles away from Vancouver, British Columbia







STORIES FROM OUR PARTNERS